#timestamp,LO_Frequency,Hit,StdDev 
1569589215.2,286047005.2,N
1569589235.0,286047006.5,Y
1569589235.9,286047006.5,P
1569589255.8,286047001.7,N
1569589275.6,286047003.3,N
1569589295.4,286047003.7,N
1569589315.3,286047007.3,Y
1569589335.1,286047004.3,P
1569589355.9,286047004.2,P
1569589375.7,286047002.3,P
1569589395.5,286047001.9,N
1569589415.4,286047002.4,N
1569589435.2,286046999.9,N
1569589455.0,286047000.1,N
1569589456.0,286047000.1,N
1569589475.8,286046998.9,N
1569589495.6,286047002.2,N
1569589515.5,286047002.5,N
1569589535.3,286047000.3,N
1569589555.1,286046998.4,N
1569589575.9,286046996.5,N
1569589595.7,286047002.5,N
1569589615.6,286047004.0,N
1569589635.4,286047003.9,N
1569589655.2,286047004.2,N
1569589675.1,286047003.6,N
1569589676.0,286047003.6,N
1569589695.8,286047002.4,N
1569589715.6,286047000.0,N
1569589735.5,286046998.1,N
1569589755.3,286047000.1,N
1569589775.1,286046998.1,N
1569589795.9,286046999.9,N
1569589815.7,286047001.0,N
1569589835.6,286046996.9,N
1569589855.4,286046999.6,N
1569589875.2,286046998.1,N
1569589895.1,286047000.3,N
1569589896.0,286047000.3,N
1569589945.8,286047004.6,E
1569589955.8,286047001.4,N
1569589975.6,286047000.1,P
1569589995.4,286047000.7,N
1569590015.3,286047000.9,N
1569590035.1,286046998.5,Y
1569590055.9,286047002.6,P
1569590075.7,286046999.9,N
1569590095.5,286046999.6,N
1569590115.4,286046999.5,N
1569590135.2,286047000.9,N
1569590155.1,286047011.9,Y
1569590156.0,286047000.3,P
1569590175.8,286047002.4,P
1569590195.6,286047002.1,N
1569590215.5,286047000.6,N
1569590235.3,286047001.3,N
1569590255.1,286047000.6,N
1569590275.9,286047000.8,N
1569590295.7,286046999.8,N
1569590315.6,286046999.7,N
1569590335.4,286047000.0,N
1569590355.2,286047003.1,Y
1569590375.1,286047005.6,P
1569590376.0,286047005.6,N
1569590395.8,286047005.2,N
1569590415.7,286047001.9,N
1569590435.5,286047000.6,N
1569590455.3,286047001.6,N
1569590475.2,286047002.3,N
1569590495.0,286046998.7,N
1569590495.9,286046998.7,N
1569590515.8,286046998.5,N
1569590535.6,286046998.4,N
1569590555.4,286047002.7,N
1569590575.3,286047001.4,N
1569590595.1,286047002.3,N
1569590615.8,286047002.3,N
1569590635.7,286047003.5,N
1569590655.5,286047002.6,N
1569590675.4,286047001.2,N
1569590695.2,286047004.1,N
1569590715.0,286047002.4,N
1569590715.9,286047002.4,N
1569590735.8,286047002.7,N
1569590755.6,286046999.1,N
1569590775.4,286046997.8,N
1569590795.3,286046997.4,N
1569590815.1,286046999.2,N
1569590835.9,286046996.6,N
1569590855.7,286046999.0,N
1569590875.5,286047000.0,N
1569590895.4,286047000.8,N
1569590915.2,286047000.6,N
1569590935.0,286046998.6,N
1569590935.9,286046998.6,N
1569590955.8,286046996.5,N
1569590975.6,286046998.9,N
1569590995.5,286046996.9,N
1569591015.3,286046998.0,N
1569591035.1,286046998.0,N
1569591055.9,286046996.8,N
1569591075.7,286046999.4,N
1569591095.5,286046997.1,N
1569591115.4,286046997.7,N
1569591135.2,286046998.0,N
1569591155.1,286046997.8,N
1569591156.0,286046997.8,N
1569591175.8,286046993.3,Y
1569591195.6,286046997.8,P
1569591215.5,286046997.8,N
1569591235.3,286046997.1,P
1569591255.2,286046997.6,Y
1569591275.9,286046999.6,P
1569591295.7,286046997.5,P
1569591315.6,286046995.4,P
1569591335.4,286046998.0,N
1569591355.2,286046999.2,N
1569591375.1,286046997.9,N
1569591376.0,286046997.9,N
1569591395.8,286046993.6,Y
1569591415.7,286047001.0,P
1569591435.5,286046998.9,N
1569591455.3,286046998.3,N
1569591475.2,286047002.8,N
1569591495.0,286047000.5,N
1569591495.9,286047000.5,N
1569591515.7,286046998.1,N
1569591535.6,286047001.1,N
1569591555.4,286046998.9,N
1569591575.3,286046997.1,N
1569591595.1,286046998.4,N
1569591596.0,286046998.4,N
1569591615.8,286046996.9,N
1569591635.7,286046997.9,N
1569591655.5,286046999.6,N
1569591675.3,286046997.9,N
1569591695.2,286046996.8,N
1569591715.0,286047000.9,N
1569591715.9,286047000.9,N
1569591735.8,286047002.0,N
1569591755.6,286047004.0,N
1569591775.4,286047003.6,N
1569591795.3,286047000.0,N
1569591815.1,286047000.2,N
1569591835.8,286047000.1,N
1569591855.7,286047001.9,N
1569591875.5,286047000.8,N
1569591895.4,286046999.7,N
1569591915.2,286047004.4,N
1569591935.0,286047001.9,N
1569591935.9,286047001.9,N
1569591955.8,286047001.5,N
1569591975.6,286047005.9,N
1569591995.5,286047006.9,Y
1569592015.3,286047001.8,P
1569592035.1,286047001.2,N
1569592055.9,286046999.2,N
1569592075.7,286046999.0,N
1569592095.5,286047002.2,N
1569592115.4,286046998.1,N
1569592135.2,286047002.5,N
1569592155.0,286047004.4,N
1569592156.0,286047004.4,N
1569592175.8,286047005.5,N
1569592195.6,286047001.9,N
1569592215.5,286047004.0,N
1569592235.3,286047000.3,N
1569592255.1,286047004.4,N
1569592275.9,286047002.9,N
1569592295.7,286047002.1,N
1569592315.5,286047002.0,N
1569592335.4,286047004.2,N
1569592355.2,286047007.1,Y
1569592375.1,286047005.7,P
1569592376.0,286047005.7,P
1569592395.8,286047007.4,P
1569592415.6,286047003.6,N
1569592435.5,286047002.6,N
1569592455.3,286047000.4,N
1569592475.2,286047001.9,N
1569592495.9,286046999.9,N
1569592515.7,286047000.9,N
1569592535.6,286047002.8,N
1569592555.4,286046999.1,N
1569592575.2,286047000.7,N
1569592595.1,286046999.9,N
1569592596.0,286046999.9,N
1569592615.8,286046998.2,N
1569592635.7,286047001.4,N
1569592655.5,286047000.7,N
1569592675.3,286046996.9,N
1569592695.2,286046998.6,N
1569592715.9,286046999.5,N
1569592735.7,286046998.5,N
1569592755.6,286046998.5,N
1569592775.4,286046999.6,N
1569592795.3,286046996.9,N
